"Period start","avg(HW err(1)/warn(2) (#))","avg(Visibility (m))","avg(Weather code (#))","avg(Precip intensity (mm/h))","min(HW err(1)/warn(2) (#))","max(HW err(1)/warn(2) (#))","std(HW err(1)/warn(2) (#))","med(HW err(1)/warn(2) (#))","min(Visibility (m))","max(Visibility (m))","std(Visibility (m))","med(Visibility (m))","min(Weather code (#))","max(Weather code (#))","std(Weather code (#))","med(Weather code (#))","min(Precip intensity (mm/h))","max(Precip intensity (mm/h))","std(Precip intensity (mm/h))","med(Precip intensity (mm/h))"
2014-05-18 00:00:00,2,40009,0,0.00,2,2,0,2,27512,47546,5623,42036,0,0,0,0,0.00,0.00,0.00,0.00
2014-05-18 00:10:00,2,40342,0,0.00,2,2,0,2,27463,50000,6255,41234,0,0,0,0,0.00,0.00,0.00,0.00
2014-05-18 00:20:00,2,39551,0,0.00,2,2,0,2,31767,46148,4906,38413,0,0,0,0,0.00,0.00,0.00,0.00
2014-05-18 00:30:00,2,39727,0,0.00,2,2,0,2,25190,50000,8851,40636,0,0,0,0,0.00,0.00,0.00,0.00
2014-05-18 00:40:00,2,31636,0,0.00,2,2,0,2,19189,40754,6571,31160,0,0,0,0,0.00,0.00,0.00,0.00
2014-05-18 00:50:00,2,26331,0,0.00,2,2,0,2,11839,42958,9146,27452,0,0,0,0,0.00,0.00,0.00,0.00
2014-05-18 01:00:00,2,35348,0,0.00,2,2,0,2,25831,49343,6943,33623,0,0,0,0,0.00,0.00,0.00,0.00
2014-05-18 01:10:00,2,39518,0,0.00,2,2,0,2,28993,50000,6711,38650,0,0,0,0,0.00,0.00,0.00,0.00
2014-05-18 01:20:00,2,42238,0,0.00,2,2,0,2,29055,50000,6506,43130,0,0,0,0,0.00,0.00,0.00,0.00
2014-05-18 01:30:00,2,38060,0,0.00,2,2,0,2,22218,48325,8711,41176,0,0,0,0,0.00,0.00,0.00,0.00
2014-05-18 01:40:00,2,40727,0,0.00,2,2,0,2,26724,50000,8105,43266,0,0,0,0,0.00,0.00,0.00,0.00
2014-05-18 01:50:00,2,39033,0,0.00,2,2,0,2,26834,45279,5255,39854,0,0,0,0,0.00,0.00,0.00,0.00
2014-05-18 02:00:00,2,38318,0,0.00,2,2,0,2,28598,47728,5903,39321,0,0,0,0,0.00,0.00,0.00,0.00
2014-05-18 02:10:00,2,36585,0,0.00,2,2,0,2,23592,50000,8229,35872,0,0,0,0,0.00,0.00,0.00,0.00
2014-05-18 02:20:00,2,36890,0,0.00,2,2,0,2,29537,46483,4913,36906,0,0,0,0,0.00,0.00,0.00,0.00
2014-05-18 02:30:00,2,34436,0,0.00,2,2,0,2,28110,47273,5891,32128,0,0,0,0,0.00,0.00,0.00,0.00
2014-05-18 02:40:00,2,37986,0,0.00,2,2,0,2,31680,44904,4870,38266,0,0,0,0,0.00,0.00,0.00,0.00
2014-05-18 02:50:00,2,20858,4,0.00,2,2,0,2,5643,31707,7378,22154,0,40,12,0,0.00,0.00,0.00,0.00
2014-05-18 03:00:00,2,2338,68,4.78,2,2,0,2,959,4516,1292,1748,40,71,9,71,0.85,14.35,3.86,3.75
2014-05-18 03:10:00,2,14695,10,0.00,2,2,0,2,7017,21547,4365,14973,0,71,21,0,0.00,0.00,0.00,0.00
2014-05-18 03:20:00,2,17454,0,0.00,2,2,0,2,13286,23337,3769,16380,0,0,0,0,0.00,0.00,0.00,0.00
2014-05-18 03:30:00,2,22876,0,0.00,2,2,0,2,18674,27182,2878,23668,0,0,0,0,0.00,0.00,0.00,0.00
2014-05-18 03:40:00,2,12004,22,0.98,2,2,0,2,1270,27488,8374,10510,0,71,29,0,0.00,6.45,1.98,0.00
2014-05-18 03:50:00,2,6734,53,0.98,2,2,0,2,1365,11959,3526,7556,10,71,28,71,0.00,3.55,1.38,0.00
2014-05-18 04:00:00,2,11462,8,0.00,2,2,0,2,9151,14127,1608,11118,0,10,4,10,0.00,0.00,0.00,0.00
2014-05-18 04:10:00,2,11430,0,0.00,2,2,0,2,6490,18768,4455,9774,0,0,0,0,0.00,0.00,0.00,0.00
2014-05-18 04:20:00,2,21741,0,0.00,2,2,0,2,10845,35958,6771,22602,0,0,0,0,0.00,0.00,0.00,0.00
2014-05-18 04:30:00,2,18967,0,0.00,2,2,0,2,7137,36649,7198,17734,0,0,0,0,0.00,0.00,0.00,0.00
2014-05-18 04:40:00,2,23344,0,0.00,2,2,0,2,16456,33454,5718,22114,0,0,0,0,0.00,0.00,0.00,0.00
2014-05-18 04:50:00,2,22625,0,0.00,2,2,0,2,14441,30277,4910,23776,0,0,0,0,0.00,0.00,0.00,0.00
2014-05-18 05:00:00,2,20361,0,0.00,2,2,0,2,9449,38653,9106,17041,0,0,0,0,0.00,0.00,0.00,0.00
2014-05-18 05:10:00,2,10388,20,0.02,2,2,0,2,5272,18176,3853,10729,0,41,20,20,0.00,0.20,0.06,0.00
2014-05-18 05:20:00,2,5487,57,2.06,2,2,0,2,866,9697,3232,4964,0,71,28,71,0.00,12.65,3.83,0.03
2014-05-18 05:30:00,2,4188,59,1.32,2,2,0,2,836,5866,1259,4456,10,71,24,71,0.00,5.00,1.39,1.12
2014-05-18 05:40:00,2,6004,47,0.52,2,2,0,2,1128,9917,2473,6542,10,71,30,71,0.00,3.75,1.13,0.00
2014-05-18 05:50:00,2,9218,10,0.00,2,2,0,2,5460,15187,2780,8452,10,10,0,10,0.00,0.00,0.00,0.00
2014-05-18 06:00:00,2,6377,10,0.00,2,2,0,2,4578,9128,1285,6340,10,10,0,10,0.00,0.00,0.00,0.00
2014-05-18 06:10:00,2,4284,65,0.33,2,2,0,2,1542,6966,1706,4237,10,71,18,71,0.00,1.80,0.58,0.03
2014-05-18 06:20:00,2,16789,40,0.01,2,2,0,2,6719,34921,9436,14036,10,71,30,40,0.00,0.05,0.02,0.00
2014-05-18 06:30:00,2,15702,0,0.00,2,2,0,2,7712,30209,5871,14734,0,0,0,0,0.00,0.00,0.00,0.00
2014-05-18 06:40:00,2,14446,4,0.01,2,2,0,2,8271,22219,4552,12964,0,40,12,0,0.00,0.05,0.02,0.00
2014-05-18 06:50:00,2,8437,65,0.05,2,2,0,2,6060,10406,1318,8583,41,71,12,71,0.00,0.25,0.07,0.03
2014-05-18 07:00:00,2,8548,67,0.12,2,2,0,2,4383,14104,3020,8102,10,77,19,71,0.00,0.80,0.24,0.00
2014-05-18 07:10:00,2,5882,71,0.57,2,2,0,2,2258,11281,2515,5386,71,71,0,71,0.00,3.65,1.05,0.15
2014-05-18 07:20:00,2,11952,22,0.00,2,2,0,2,5870,17291,3073,12555,10,71,24,10,0.00,0.00,0.00,0.00
2014-05-18 07:30:00,2,16431,0,0.00,2,2,0,2,11038,24113,4259,15378,0,0,0,0,0.00,0.00,0.00,0.00
2014-05-18 07:40:00,2,17495,0,0.00,2,2,0,2,12186,22833,3352,17176,0,0,0,0,0.00,0.00,0.00,0.00
2014-05-18 07:50:00,2,17862,0,0.00,2,2,0,2,10832,26528,4602,17542,0,0,0,0,0.00,0.00,0.00,0.00
2014-05-18 08:00:00,2,22041,0,0.00,2,2,0,2,11592,29810,6054,21524,0,0,0,0,0.00,0.00,0.00,0.00
2014-05-18 08:10:00,2,32483,22,0.00,2,2,0,2,10239,46419,13063,39044,0,78,34,0,0.00,0.00,0.00,0.00
2014-05-18 08:20:00,2,41795,0,0.00,2,2,0,2,31979,50000,5573,41146,0,0,0,0,0.00,0.00,0.00,0.00
2014-05-18 08:30:00,2,36278,0,0.00,2,2,0,2,16462,47643,9137,37342,0,0,0,0,0.00,0.00,0.00,0.00
2014-05-18 08:40:00,2,36668,0,0.00,2,2,0,2,19366,50000,10538,40344,0,0,0,0,0.00,0.00,0.00,0.00
2014-05-18 08:50:00,2,37239,0,0.00,2,2,0,2,24717,50000,8336,37553,0,0,0,0,0.00,0.00,0.00,0.00
2014-05-18 09:00:00,2,20330,45,0.01,2,2,0,2,14250,28762,3935,20350,0,71,26,41,0.00,0.05,0.02,0.00
2014-05-18 09:10:00,2,27148,77,0.01,2,2,0,2,19527,38449,5194,26894,71,78,2,78,0.00,0.05,0.02,0.00
2014-05-18 09:20:00,2,16703,77,0.02,2,2,0,2,10926,27896,5370,15406,77,78,0,77,0.00,0.05,0.02,0.00
2014-05-18 09:30:00,2,12616,73,0.04,2,2,0,2,7177,18730,3668,12410,71,77,3,71,0.00,0.30,0.09,0.00
2014-05-18 09:40:00,2,25100,0,0.00,2,2,0,2,16887,38373,6001,23170,0,0,0,0,0.00,0.00,0.00,0.00
2014-05-18 09:50:00,2,36558,0,0.00,2,2,0,2,23059,49842,8317,35483,0,0,0,0,0.00,0.00,0.00,0.00
2014-05-18 10:00:00,2,14901,22,0.01,2,2,0,2,4690,25472,6923,15881,0,77,33,0,0.00,0.05,0.02,0.00
2014-05-18 10:10:00,2,4407,72,0.23,2,2,0,2,3270,6415,866,4358,71,77,2,71,0.05,0.50,0.15,0.17
2014-05-18 10:20:00,2,5987,73,0.11,2,2,0,2,3078,9397,2145,5040,71,77,3,71,0.00,0.30,0.10,0.08
2014-05-18 10:30:00,2,21324,14,0.00,2,2,0,2,11160,31240,5947,19546,0,71,28,0,0.00,0.00,0.00,0.00
2014-05-18 10:40:00,2,32162,0,0.00,2,2,0,2,15596,45177,11077,37254,0,0,0,0,0.00,0.00,0.00,0.00
2014-05-18 10:50:00,2,43454,0,0.00,2,2,0,2,36171,50000,4722,43866,0,0,0,0,0.00,0.00,0.00,0.00
2014-05-18 11:00:00,2,40976,0,0.00,2,2,0,2,24773,50000,7282,40740,0,0,0,0,0.00,0.00,0.00,0.00
2014-05-18 11:10:00,2,42582,0,0.00,2,2,0,2,29349,50000,7237,42404,0,0,0,0,0.00,0.00,0.00,0.00
2014-05-18 11:20:00,2,47212,0,0.00,2,2,0,2,38994,50000,3505,48507,0,0,0,0,0.00,0.00,0.00,0.00
2014-05-18 11:30:00,2,48902,0,0.00,2,2,0,2,44507,50000,1829,50000,0,0,0,0,0.00,0.00,0.00,0.00
2014-05-18 11:40:00,2,43654,0,0.00,2,2,0,2,32964,50000,5256,45262,0,0,0,0,0.00,0.00,0.00,0.00
2014-05-18 11:50:00,2,40617,0,0.00,2,2,0,2,34273,50000,3947,39506,0,0,0,0,0.00,0.00,0.00,0.00
2014-05-18 12:00:00,2,41443,0,0.00,2,2,0,2,32909,50000,5109,41912,0,0,0,0,0.00,0.00,0.00,0.00
2014-05-18 12:10:00,2,41773,0,0.00,2,2,0,2,27293,48874,7036,45154,0,0,0,0,0.00,0.00,0.00,0.00
2014-05-18 12:20:00,2,44206,0,0.00,2,2,0,2,36875,50000,4613,45601,0,0,0,0,0.00,0.00,0.00,0.00
2014-05-18 12:30:00,2,45836,0,0.00,2,2,0,2,42187,50000,2458,45156,0,0,0,0,0.00,0.00,0.00,0.00
2014-05-18 12:40:00,2,45866,0,0.00,2,2,0,2,39049,50000,3674,46699,0,0,0,0,0.00,0.00,0.00,0.00
2014-05-18 12:50:00,2,49437,0,0.00,2,2,0,2,47575,50000,892,50000,0,0,0,0,0.00,0.00,0.00,0.00
2014-05-18 13:00:00,2,48841,0,0.00,2,2,0,2,42370,50000,2240,50000,0,0,0,0,0.00,0.00,0.00,0.00
2014-05-18 13:10:00,2,48887,0,0.00,2,2,0,2,45280,50000,1768,50000,0,0,0,0,0.00,0.00,0.00,0.00
2014-05-18 13:20:00,2,49753,0,0.00,2,2,0,2,48675,50000,457,50000,0,0,0,0,0.00,0.00,0.00,0.00
2014-05-18 13:30:00,2,49784,0,0.00,2,2,0,2,47845,50000,646,50000,0,0,0,0,0.00,0.00,0.00,0.00
2014-05-18 13:40:00,2,49820,0,0.00,2,2,0,2,49071,50000,336,50000,0,0,0,0,0.00,0.00,0.00,0.00
2014-05-18 13:50:00,2,49964,0,0.00,2,2,0,2,49785,50000,74,50000,0,0,0,0,0.00,0.00,0.00,0.00
2014-05-18 14:00:00,2,49951,0,0.00,2,2,0,2,49513,50000,146,50000,0,0,0,0,0.00,0.00,0.00,0.00
2014-05-18 14:10:00,2,50000,0,0.00,2,2,0,2,50000,50000,0,50000,0,0,0,0,0.00,0.00,0.00,0.00
2014-05-18 14:20:00,2,49997,0,0.00,2,2,0,2,49968,50000,10,50000,0,0,0,0,0.00,0.00,0.00,0.00
2014-05-18 14:30:00,2,50000,0,0.00,2,2,0,2,50000,50000,0,50000,0,0,0,0,0.00,0.00,0.00,0.00
2014-05-18 14:40:00,2,49468,0,0.00,2,2,0,2,45680,50000,1298,50000,0,0,0,0,0.00,0.00,0.00,0.00
2014-05-18 14:50:00,2,50000,0,0.00,2,2,0,2,50000,50000,0,50000,0,0,0,0,0.00,0.00,0.00,0.00
2014-05-18 15:00:00,2,50000,0,0.00,2,2,0,2,50000,50000,0,50000,0,0,0,0,0.00,0.00,0.00,0.00
2014-05-18 15:10:00,2,49516,0,0.00,2,2,0,2,47902,50000,725,49936,0,0,0,0,0.00,0.00,0.00,0.00
2014-05-18 15:20:00,2,50000,0,0.00,2,2,0,2,50000,50000,0,50000,0,0,0,0,0.00,0.00,0.00,0.00
2014-05-18 15:30:00,2,50000,0,0.00,2,2,0,2,50000,50000,0,50000,0,0,0,0,0.00,0.00,0.00,0.00
2014-05-18 15:40:00,2,49140,0,0.00,2,2,0,2,45535,50000,1722,50000,0,0,0,0,0.00,0.00,0.00,0.00
2014-05-18 15:50:00,2,50000,0,0.00,2,2,0,2,50000,50000,0,50000,0,0,0,0,0.00,0.00,0.00,0.00
2014-05-18 16:00:00,2,50000,0,0.00,2,2,0,2,50000,50000,0,50000,0,0,0,0,0.00,0.00,0.00,0.00
2014-05-18 16:10:00,2,40394,14,0.01,2,2,0,2,7636,50000,16716,50000,0,71,28,0,0.00,0.05,0.02,0.00
2014-05-18 16:20:00,2,8160,78,0.11,2,2,0,2,5990,14056,2298,7486,77,78,0,78,0.05,0.25,0.07,0.08
2014-05-18 16:30:00,2,7229,77,0.06,2,2,0,2,5659,9467,1094,6899,77,77,0,77,0.00,0.10,0.04,0.05
2014-05-18 16:40:00,2,11514,77,0.01,2,2,0,2,7633,18466,2937,11512,77,77,0,77,0.00,0.05,0.02,0.00
2014-05-18 16:50:00,2,8304,75,0.06,2,2,0,2,6546,12589,1832,7452,71,77,3,77,0.00,0.15,0.05,0.05
2014-05-18 17:00:00,2,5687,76,0.17,2,2,0,2,2038,10910,3071,4936,71,77,2,77,0.00,0.60,0.20,0.08
2014-05-18 17:10:00,2,2437,71,0.61,2,2,0,2,1957,3346,418,2403,71,71,0,71,0.35,0.90,0.18,0.62
2014-05-18 17:20:00,2,5523,75,0.21,2,2,0,2,3319,10242,2250,4599,71,77,3,77,0.05,0.50,0.15,0.17
2014-05-18 17:30:00,2,31351,69,0.01,2,2,0,2,12117,50000,14178,32748,0,77,23,77,0.00,0.05,0.02,0.00
2014-05-18 17:40:00,2,48891,0,0.00,2,2,0,2,44062,50000,1908,50000,0,0,0,0,0.00,0.00,0.00,0.00
2014-05-18 17:50:00,2,48328,0,0.00,2,2,0,2,41418,50000,2553,49594,0,0,0,0,0.00,0.00,0.00,0.00
2014-05-18 18:00:00,2,47850,0,0.00,2,2,0,2,41674,50000,2509,48471,0,0,0,0,0.00,0.00,0.00,0.00
2014-05-18 18:10:00,2,43023,0,0.00,2,2,0,2,29470,50000,7266,45734,0,0,0,0,0.00,0.00,0.00,0.00
2014-05-18 18:20:00,2,35666,0,0.00,2,2,0,2,20594,43063,6998,38444,0,0,0,0,0.00,0.00,0.00,0.00
2014-05-18 18:30:00,2,48498,0,0.00,2,2,0,2,42247,50000,2562,50000,0,0,0,0,0.00,0.00,0.00,0.00
2014-05-18 18:40:00,2,47252,0,0.00,2,2,0,2,35058,50000,4817,49840,0,0,0,0,0.00,0.00,0.00,0.00
2014-05-18 18:50:00,2,43230,0,0.00,2,2,0,2,31440,50000,6809,44920,0,0,0,0,0.00,0.00,0.00,0.00
2014-05-18 19:00:00,2,43897,0,0.00,2,2,0,2,31623,50000,5228,44995,0,0,0,0,0.00,0.00,0.00,0.00
2014-05-18 19:10:00,2,34656,0,0.00,2,2,0,2,24043,40969,5612,36772,0,0,0,0,0.00,0.00,0.00,0.00
2014-05-18 19:20:00,2,44728,0,0.00,2,2,0,2,39944,50000,3337,45016,0,0,0,0,0.00,0.00,0.00,0.00
2014-05-18 19:30:00,2,26969,21,0.05,2,2,0,2,7677,49318,12780,24712,0,71,33,0,0.00,0.35,0.11,0.00
2014-05-18 19:40:00,2,7501,71,1.01,2,2,0,2,4133,13413,3129,6428,71,71,0,71,0.00,2.40,0.80,0.90
2014-05-18 19:50:00,2,24717,28,0.00,2,2,0,2,11139,32150,6688,27124,0,71,35,0,0.00,0.00,0.00,0.00
2014-05-18 20:00:00,2,12612,57,0.17,2,2,0,2,5048,26711,5899,11367,0,71,28,71,0.00,1.05,0.30,0.05
2014-05-18 20:10:00,2,12330,75,0.01,2,2,0,2,9357,14563,1760,13208,71,77,3,77,0.00,0.05,0.02,0.00
2014-05-18 20:20:00,2,17504,46,0.00,2,2,0,2,11471,25889,4468,16342,0,77,38,77,0.00,0.00,0.00,0.00
2014-05-18 20:30:00,2,19023,50,0.03,2,2,0,2,10580,35363,7830,16438,0,71,33,71,0.00,0.20,0.06,0.00
2014-05-18 20:40:00,2,29030,0,0.00,2,2,0,2,15721,45709,10372,28216,0,0,0,0,0.00,0.00,0.00,0.00
2014-05-18 20:50:00,2,35779,0,0.00,2,2,0,2,31401,45470,4419,34382,0,0,0,0,0.00,0.00,0.00,0.00
2014-05-18 21:00:00,2,28249,0,0.00,2,2,0,2,16499,37259,5514,27216,0,0,0,0,0.00,0.00,0.00,0.00
2014-05-18 21:10:00,2,29161,0,0.00,2,2,0,2,16368,45578,8606,27526,0,0,0,0,0.00,0.00,0.00,0.00
2014-05-18 21:20:00,2,27578,26,0.17,2,2,0,2,7479,50000,16085,28674,0,71,28,20,0.00,0.95,0.30,0.00
2014-05-18 21:30:00,2,10478,71,0.34,2,2,0,2,7551,21180,3802,9302,71,71,0,71,0.00,1.00,0.31,0.23
2014-05-18 21:40:00,2,17245,76,0.02,2,2,0,2,8404,27149,6051,19953,71,77,2,77,0.00,0.05,0.02,0.00
2014-05-18 21:50:00,2,17995,75,0.02,2,2,0,2,8765,24690,4761,17923,71,77,3,77,0.00,0.05,0.02,0.00
2014-05-18 22:00:00,2,20770,74,0.02,2,2,0,2,15895,26517,2991,20700,71,77,3,74,0.00,0.05,0.02,0.00
2014-05-18 22:10:00,2,9129,71,0.29,2,2,0,2,6780,11967,1598,8570,71,71,0,71,0.05,0.90,0.25,0.20
2014-05-18 22:20:00,2,8716,71,0.40,2,2,0,2,7231,11545,1467,8072,71,71,0,71,0.10,0.75,0.19,0.35
2014-05-18 22:30:00,2,6276,71,1.12,2,2,0,2,4341,8551,1535,5884,71,71,0,71,0.40,2.05,0.53,1.10
2014-05-18 22:40:00,2,5346,71,1.91,2,2,0,2,3863,6633,816,5172,71,71,0,71,0.90,3.15,0.57,1.82
2014-05-18 22:50:00,2,6650,71,1.08,2,2,0,2,4497,9442,1418,6248,71,71,0,71,0.50,1.85,0.41,1.02
2014-05-18 23:00:00,2,7568,71,0.57,2,2,0,2,4820,10005,1573,7362,71,71,0,71,0.10,1.10,0.31,0.52
2014-05-18 23:10:00,2,4259,71,0.33,2,2,0,2,1863,6723,1694,4666,71,71,0,71,0.10,1.20,0.31,0.20
2014-05-18 23:20:00,2,1998,71,0.40,2,2,0,2,1559,2471,314,1960,71,71,0,71,0.05,0.90,0.28,0.30
2014-05-18 23:30:00,2,3730,71,0.45,2,2,0,2,2702,5039,790,3570,71,71,0,71,0.20,0.85,0.16,0.45
2014-05-18 23:40:00,2,3617,71,0.49,2,2,0,2,2815,4286,541,3774,71,71,0,71,0.10,1.05,0.28,0.50
2014-05-18 23:50:00,2,3255,71,0.32,2,2,0,2,1992,4764,910,3081,71,71,0,71,0.15,0.55,0.13,0.33
